Time,TemperatureF,DewpointF,PressureIn,WindDirection,WindDirectionDegrees,WindSpeedMPH,WindSpeedGustMPH,Humidity,HourlyPrecipIn,Conditions,Clouds,dailyrainin,SoftwareType,DateUTC
2013-06-14 00:12:00,58.0,52.0,-100.00,NNW,345,5.0,11.0,80,-99.99,,,-99.99,,2013-06-14 04:12:00,
2013-06-14 00:22:00,58.0,52.0,-100.00,NW,325,5.0,14.0,81,-99.99,,,-99.99,,2013-06-14 04:22:00,
2013-06-14 00:33:00,58.0,52.0,-100.00,North,0,6.0,14.0,80,-99.99,,,-99.99,,2013-06-14 04:33:00,
2013-06-14 00:43:00,57.0,51.0,-100.00,NNW,335,3.0,12.0,78,-99.99,,,-99.99,,2013-06-14 04:43:00,
2013-06-14 00:53:00,57.0,50.0,-100.00,North,0,4.0,12.0,78,-99.99,,,-99.99,,2013-06-14 04:53:00,
2013-06-14 01:11:00,56.0,50.0,-100.00,North,350,3.0,7.0,81,-99.99,,,-99.99,,2013-06-14 05:11:00,
2013-06-14 01:22:00,56.0,50.0,-100.00,North,355,3.0,7.0,83,-99.99,,,-99.99,,2013-06-14 05:22:00,
2013-06-14 01:34:00,55.0,50.0,-100.00,North,0,3.0,7.0,85,-99.99,,,-99.99,,2013-06-14 05:34:00,
2013-06-14 01:52:00,54.0,50.0,-100.00,North,355,2.0,4.0,89,-99.99,,,-99.99,,2013-06-14 05:52:00,
2013-06-14 02:12:00,53.0,50.0,-100.00,North,0,1.0,4.0,91,-99.99,,,-99.99,,2013-06-14 06:12:00,
2013-06-14 02:22:00,53.0,50.0,-100.00,NNE,20,2.0,4.0,92,-99.99,,,-99.99,,2013-06-14 06:22:00,
2013-06-14 03:33:00,52.0,51.0,-100.00,NNE,25,4.0,5.0,97,-99.99,,,-99.99,,2013-06-14 07:33:00,
2013-06-14 03:43:00,51.0,51.0,-100.00,NNE,15,4.0,6.0,97,-99.99,,,-99.99,,2013-06-14 07:43:00,
2013-06-14 03:53:00,51.0,51.0,-100.00,NNE,15,4.0,6.0,97,-99.99,,,-99.99,,2013-06-14 07:53:00,
2013-06-14 04:02:00,51.0,50.0,-100.00,North,0,2.0,4.0,98,-99.99,,,-99.99,,2013-06-14 08:02:00,
2013-06-14 04:12:00,51.0,50.0,-100.00,North,0,2.0,4.0,98,-99.99,,,-99.99,,2013-06-14 08:12:00,
2013-06-14 04:23:00,51.0,50.0,-100.00,North,0,2.0,5.0,98,-99.99,,,-99.99,,2013-06-14 08:23:00,
2013-06-14 04:33:00,51.0,50.0,-100.00,North,0,2.0,4.0,98,-99.99,,,-99.99,,2013-06-14 08:33:00,
2013-06-14 04:43:00,50.0,50.0,-100.00,North,0,2.0,4.0,98,-99.99,,,-99.99,,2013-06-14 08:43:00,
2013-06-14 04:53:00,51.0,50.0,-100.00,NNE,15,2.0,4.0,99,-99.99,,,-99.99,,2013-06-14 08:53:00,
2013-06-14 05:12:00,51.0,50.0,-100.00,NW,315,3.0,4.0,99,-99.99,,,-99.99,,2013-06-14 09:12:00,
2013-06-14 05:33:00,50.0,50.0,-100.00,NW,320,2.0,4.0,99,-99.99,,,-99.99,,2013-06-14 09:33:00,
2013-06-14 05:43:00,50.0,50.0,-100.00,North,0,2.0,6.0,99,-99.99,,,-99.99,,2013-06-14 09:43:00,
2013-06-14 05:53:00,50.0,50.0,-100.00,North,350,1.0,4.0,99,-99.99,,,-99.99,,2013-06-14 09:53:00,
2013-06-14 06:12:00,50.0,50.0,-100.00,North,355,2.0,4.0,99,-99.99,,,-99.99,,2013-06-14 10:12:00,
2013-06-14 06:22:00,50.0,49.0,-100.00,North,350,2.0,4.0,99,-99.99,,,-99.99,,2013-06-14 10:22:00,
2013-06-14 06:34:00,50.0,49.0,-100.00,NNW,345,1.0,4.0,99,-99.99,,,-99.99,,2013-06-14 10:34:00,
2013-06-14 06:52:00,50.0,49.0,-100.00,NNW,335,2.0,4.0,99,-99.99,,,-99.99,,2013-06-14 10:52:00,
2013-06-14 07:23:00,51.0,50.0,-100.00,NNW,345,3.0,6.0,99,-99.99,,,-99.99,,2013-06-14 11:23:00,
2013-06-14 07:32:00,51.0,51.0,-100.00,NNW,345,1.0,6.0,99,-99.99,,,-99.99,,2013-06-14 11:32:00,
2013-06-14 07:43:00,53.0,53.0,-100.00,NNW,345,2.0,7.0,99,-99.99,,,-99.99,,2013-06-14 11:43:00,
2013-06-14 07:52:00,53.0,53.0,-100.00,North,0,1.0,7.0,99,-99.99,,,-99.99,,2013-06-14 11:52:00,
2013-06-14 08:02:00,54.0,53.0,-100.00,NNE,25,4.0,6.0,99,-99.99,,,-99.99,,2013-06-14 12:02:00,
2013-06-14 08:12:00,54.0,53.0,-100.00,NNE,25,4.0,6.0,99,-99.99,,,-99.99,,2013-06-14 12:12:00,
2013-06-14 08:22:00,54.0,54.0,-100.00,NNE,20,4.0,7.0,99,-99.99,,,-99.99,,2013-06-14 12:22:00,
2013-06-14 08:33:00,54.0,54.0,-100.00,NNE,25,6.0,11.0,99,-99.99,,,-99.99,,2013-06-14 12:33:00,
2013-06-14 08:43:00,56.0,56.0,-100.00,NNE,30,6.0,11.0,98,-99.99,,,-99.99,,2013-06-14 12:43:00,
2013-06-14 08:52:00,57.0,56.0,-100.00,NNE,25,6.0,9.0,96,-99.99,,,-99.99,,2013-06-14 12:52:00,
2013-06-14 09:02:00,57.0,56.0,-100.00,NNE,25,6.0,9.0,96,-99.99,,,-99.99,,2013-06-14 13:02:00,
2013-06-14 09:11:00,57.0,55.0,-100.00,NNE,30,4.0,12.0,94,-99.99,,,-99.99,,2013-06-14 13:11:00,
2013-06-14 09:22:00,58.0,56.0,-100.00,NNE,25,6.0,9.0,91,-99.99,,,-99.99,,2013-06-14 13:22:00,
2013-06-14 09:33:00,58.0,56.0,-100.00,NNE,25,6.0,9.0,91,-99.99,,,-99.99,,2013-06-14 13:33:00,
2013-06-14 09:43:00,60.0,57.0,-100.00,NNE,25,6.0,11.0,88,-99.99,,,-99.99,,2013-06-14 13:43:00,
2013-06-14 09:53:00,61.0,57.0,-100.00,NNE,20,5.0,8.0,86,-99.99,,,-99.99,,2013-06-14 13:53:00,
2013-06-14 10:02:00,62.0,57.0,-100.00,NNE,25,7.0,10.0,84,-99.99,,,-99.99,,2013-06-14 14:02:00,
2013-06-14 10:11:00,62.0,58.0,-100.00,NE,45,7.0,11.0,84,-99.99,,,-99.99,,2013-06-14 14:11:00,
2013-06-14 10:22:00,63.0,58.0,-100.00,NNE,25,7.0,12.0,82,-99.99,,,-99.99,,2013-06-14 14:22:00,
2013-06-14 10:34:00,64.0,58.0,-100.00,NE,45,7.0,11.0,82,-99.99,,,-99.99,,2013-06-14 14:34:00,
2013-06-14 10:43:00,65.0,59.0,-100.00,ENE,65,4.0,9.0,80,-99.99,,,-99.99,,2013-06-14 14:43:00,
2013-06-14 10:52:00,66.0,58.0,-100.00,ENE,60,7.0,10.0,76,-99.99,,,-99.99,,2013-06-14 14:52:00,
2013-06-14 11:02:00,67.0,58.0,-100.00,NE,50,7.0,10.0,74,-99.99,,,-99.99,,2013-06-14 15:02:00,
2013-06-14 11:11:00,68.0,58.0,-100.00,East,80,4.0,10.0,71,-99.99,,,-99.99,,2013-06-14 15:11:00,
2013-06-14 11:23:00,69.0,58.0,-100.00,NNE,30,5.0,9.0,69,-99.99,,,-99.99,,2013-06-14 15:23:00,
2013-06-14 11:33:00,69.0,58.0,-100.00,NE,40,6.0,9.0,67,-99.99,,,-99.99,,2013-06-14 15:33:00,
2013-06-14 11:44:00,71.0,58.0,-100.00,East,90,4.0,9.0,64,-99.99,,,-99.99,,2013-06-14 15:44:00,
2013-06-14 11:53:00,71.0,58.0,-100.00,NE,40,2.0,7.0,62,-99.99,,,-99.99,,2013-06-14 15:53:00,
2013-06-14 12:01:00,71.0,58.0,-100.00,NE,40,2.0,7.0,62,-99.99,,,-99.99,,2013-06-14 16:01:00,
2013-06-14 12:11:00,71.0,56.0,-100.00,SSE,160,1.0,7.0,59,-99.99,,,-99.99,,2013-06-14 16:11:00,
2013-06-14 12:22:00,72.0,56.0,-100.00,East,80,2.0,5.0,57,-99.99,,,-99.99,,2013-06-14 16:22:00,
2013-06-14 12:33:00,73.0,57.0,-100.00,SSW,195,1.0,4.0,57,-99.99,,,-99.99,,2013-06-14 16:33:00,
2013-06-14 12:43:00,73.0,56.0,-100.00,ENE,60,1.0,6.0,55,-99.99,,,-99.99,,2013-06-14 16:43:00,
2013-06-14 12:52:00,71.0,56.0,-100.00,WSW,240,4.0,7.0,58,-99.99,,,-99.99,,2013-06-14 16:52:00,
2013-06-14 13:02:00,75.0,59.0,-100.00,NNW,345,2.0,7.0,58,-99.99,,,-99.99,,2013-06-14 17:02:00,
2013-06-14 13:12:00,75.0,59.0,-100.00,NNW,345,2.0,7.0,58,-99.99,,,-99.99,,2013-06-14 17:12:00,
2013-06-14 13:22:00,76.0,58.0,-100.00,NNW,335,2.0,6.0,55,-99.99,,,-99.99,,2013-06-14 17:22:00,
2013-06-14 13:34:00,73.0,56.0,-100.00,North,350,3.0,6.0,56,-99.99,,,-99.99,,2013-06-14 17:34:00,
2013-06-14 13:43:00,75.0,56.0,-100.00,East,90,4.0,10.0,53,-99.99,,,-99.99,,2013-06-14 17:43:00,
2013-06-14 13:53:00,73.0,56.0,-100.00,NNE,20,5.0,9.0,55,-99.99,,,-99.99,,2013-06-14 17:53:00,
2013-06-14 14:02:00,73.0,56.0,-100.00,NNE,20,5.0,9.0,55,-99.99,,,-99.99,,2013-06-14 18:02:00,
2013-06-14 14:11:00,76.0,58.0,-100.00,NNE,15,4.0,9.0,53,-99.99,,,-99.99,,2013-06-14 18:11:00,
2013-06-14 14:22:00,74.0,55.0,-100.00,NE,45,7.0,10.0,51,-99.99,,,-99.99,,2013-06-14 18:22:00,
2013-06-14 14:32:00,75.0,55.0,-100.00,ENE,65,5.0,9.0,51,-99.99,,,-99.99,,2013-06-14 18:32:00,
2013-06-14 14:43:00,75.0,56.0,-100.00,NNE,15,4.0,10.0,52,-99.99,,,-99.99,,2013-06-14 18:43:00,
2013-06-14 14:52:00,76.0,55.0,-100.00,NNE,30,6.0,9.0,48,-99.99,,,-99.99,,2013-06-14 18:52:00,
2013-06-14 15:01:00,76.0,55.0,-100.00,NNE,30,6.0,9.0,48,-99.99,,,-99.99,,2013-06-14 19:01:00,
2013-06-14 15:11:00,78.0,56.0,-100.00,NNE,30,2.0,7.0,47,-99.99,,,-99.99,,2013-06-14 19:11:00,
2013-06-14 15:22:00,77.0,55.0,-100.00,North,0,4.0,11.0,47,-99.99,,,-99.99,,2013-06-14 19:22:00,
2013-06-14 15:32:00,78.0,56.0,-100.00,NNE,25,5.0,10.0,47,-99.99,,,-99.99,,2013-06-14 19:32:00,
2013-06-14 15:43:00,77.0,55.0,-100.00,NNE,15,2.0,12.0,47,-99.99,,,-99.99,,2013-06-14 19:43:00,
2013-06-14 15:53:00,76.0,54.0,-100.00,NNE,25,2.0,6.0,47,-99.99,,,-99.99,,2013-06-14 19:53:00,
2013-06-14 16:02:00,76.0,54.0,-100.00,NNE,25,2.0,6.0,47,-99.99,,,-99.99,,2013-06-14 20:02:00,
2013-06-14 16:11:00,78.0,55.0,-100.00,NNE,20,6.0,11.0,46,-99.99,,,-99.99,,2013-06-14 20:11:00,
2013-06-14 16:22:00,76.0,54.0,-100.00,NE,40,4.0,11.0,47,-99.99,,,-99.99,,2013-06-14 20:22:00,
2013-06-14 16:33:00,76.0,55.0,-100.00,NE,55,5.0,9.0,48,-99.99,,,-99.99,,2013-06-14 20:33:00,
2013-06-14 16:43:00,78.0,55.0,-100.00,NW,325,2.0,8.0,46,-99.99,,,-99.99,,2013-06-14 20:43:00,
2013-06-14 16:53:00,78.0,55.0,-100.00,NNW,330,2.0,7.0,45,-99.99,,,-99.99,,2013-06-14 20:53:00,
2013-06-14 17:02:00,78.0,55.0,-100.00,NNW,330,2.0,7.0,45,-99.99,,,-99.99,,2013-06-14 21:02:00,
2013-06-14 17:12:00,80.0,57.0,-100.00,North,355,1.0,7.0,45,-99.99,,,-99.99,,2013-06-14 21:12:00,
2013-06-14 17:22:00,80.0,55.0,-100.00,NW,310,4.0,9.0,43,-99.99,,,-99.99,,2013-06-14 21:22:00,
2013-06-14 17:34:00,80.0,56.0,-100.00,North,350,4.0,8.0,43,-99.99,,,-99.99,,2013-06-14 21:34:00,
2013-06-14 17:42:00,78.0,55.0,-100.00,WNW,300,6.0,9.0,46,-99.99,,,-99.99,,2013-06-14 21:42:00,
2013-06-14 17:52:00,79.0,55.0,-100.00,NW,315,3.0,9.0,43,-99.99,,,-99.99,,2013-06-14 21:52:00,
2013-06-14 18:02:00,79.0,55.0,-100.00,NNE,20,3.0,7.0,43,-99.99,,,-99.99,,2013-06-14 22:02:00,
2013-06-14 18:12:00,80.0,55.0,-100.00,NNE,25,3.0,7.0,43,-99.99,,,-99.99,,2013-06-14 22:12:00,
2013-06-14 18:22:00,80.0,55.0,-100.00,NNE,25,2.0,10.0,43,-99.99,,,-99.99,,2013-06-14 22:22:00,
2013-06-14 18:33:00,79.0,54.0,-100.00,ENE,75,4.0,9.0,42,-99.99,,,-99.99,,2013-06-14 22:33:00,
2013-06-14 18:43:00,76.0,53.0,-100.00,NNE,25,8.0,11.0,44,-99.99,,,-99.99,,2013-06-14 22:43:00,
2013-06-14 18:53:00,76.0,53.0,-100.00,NNE,25,8.0,11.0,44,-99.99,,,-99.99,,2013-06-14 22:53:00,
2013-06-14 19:02:00,77.0,54.0,-100.00,NNE,25,3.0,7.0,45,-99.99,,,-99.99,,2013-06-14 23:02:00,
2013-06-14 19:11:00,76.0,53.0,-100.00,NNE,25,6.0,9.0,45,-99.99,,,-99.99,,2013-06-14 23:11:00,
2013-06-14 19:22:00,76.0,53.0,-100.00,NNE,25,6.0,9.0,45,-99.99,,,-99.99,,2013-06-14 23:22:00,
2013-06-14 19:33:00,75.0,53.0,-100.00,NE,55,6.0,9.0,47,-99.99,,,-99.99,,2013-06-14 23:33:00,
2013-06-14 19:43:00,74.0,53.0,-100.00,NNE,25,3.0,6.0,49,-99.99,,,-99.99,,2013-06-14 23:43:00,
2013-06-14 19:52:00,73.0,53.0,-100.00,NNE,30,3.0,7.0,49,-99.99,,,-99.99,,2013-06-14 23:52:00,
2013-06-14 20:01:00,73.0,53.0,-100.00,NE,50,4.0,6.0,50,-99.99,,,-99.99,,2013-06-15 00:01:00,
2013-06-14 20:11:00,73.0,54.0,-100.00,NE,50,4.0,5.0,52,-99.99,,,-99.99,,2013-06-15 00:11:00,
2013-06-14 20:23:00,72.0,54.0,-100.00,NE,40,4.0,5.0,53,-99.99,,,-99.99,,2013-06-15 00:23:00,
2013-06-14 20:34:00,72.0,54.0,-100.00,NE,45,3.0,5.0,53,-99.99,,,-99.99,,2013-06-15 00:34:00,
2013-06-14 20:43:00,72.0,55.0,-100.00,NE,35,2.0,4.0,55,-99.99,,,-99.99,,2013-06-15 00:43:00,
2013-06-14 20:53:00,72.0,55.0,-100.00,NE,45,4.0,6.0,56,-99.99,,,-99.99,,2013-06-15 00:53:00,
2013-06-14 21:01:00,71.0,54.0,-100.00,NE,40,3.0,6.0,57,-99.99,,,-99.99,,2013-06-15 01:01:00,
2013-06-14 21:11:00,69.0,54.0,-100.00,NE,45,2.0,4.0,59,-99.99,,,-99.99,,2013-06-15 01:11:00,
2013-06-14 21:33:00,67.0,55.0,-100.00,NE,45,2.0,5.0,64,-99.99,,,-99.99,,2013-06-15 01:33:00,
2013-06-14 22:11:00,64.0,57.0,-100.00,ENE,60,2.0,4.0,77,-99.99,,,-99.99,,2013-06-15 02:11:00,
2013-06-14 22:23:00,63.0,58.0,-100.00,ENE,75,3.0,3.0,81,-99.99,,,-99.99,,2013-06-15 02:23:00,
2013-06-14 22:53:00,62.0,58.0,-100.00,ENE,65,3.0,4.0,89,-99.99,,,-99.99,,2013-06-15 02:53:00,
2013-06-14 23:01:00,61.0,58.0,-100.00,ENE,75,3.0,4.0,90,-99.99,,,-99.99,,2013-06-15 03:01:00,
2013-06-14 23:52:00,60.0,58.0,-100.00,East,85,3.0,5.0,92,-99.99,,,-99.99,,2013-06-15 03:52:00,